STARLINK-36552, 67503

Orbit data source: Space-Track

STARLINK-36552, 67503 is a payload satellite owned by SpaceX/Seattle (US) in LEO that was launched on Sun, 18 Jan 2026 UTC via an FALCON 9 launch vehicle from the Air Force Eastern Test Range (AFETR). Payload-class satellites include a variety of spacecraft equipped with specific instruments for various scientific and technological missions. These include communications satellites like Starlink; space stations such as the ISS; scientific satellites like the Hubble; Earth observation satellites from companies like Planet Labs, Umbra, and HawkEye 360; GPS; miniature CubeSats for education and research; and military/defense satellites.

Loading next visibility...
Identifier
67503, 2026-012L
Orbit
LEO
Country
Flag of USUS
Related business
Manufacturer
SpaceX/Seattle
Mission
Operational Commercial Communications
Bus & Motor
STARLINK V2MO, Unknown motor
Mass
575 kg wet, ~530 kg dry
Launch date (UTC)
2026-01-18 (5 months ago)
Launch vehicle
FALCON 9
Launch site
Air Force Eastern Test Range (AFETR)
Object type
Payload
Rocket body
Debris
Shape & HBR
Box + 2 Pan, 17.7 m
Radar Cross Section
36.964 m², Large (>1 m²)

Expand to show TLE details & history
Last TLE update: 17 hours ago

TLE from 17 hours ago
0 STARLINK-36552
1 67503U 26012L   26171.15016332  .00016819  00000-0  61861-3 0  9990
2 67503  42.9979  95.6010 0001032 253.1382 106.9357 15.27617363 23438
Epoch: 2026-06-20T03:36Z
TLE epoch observation values (Epoch: 2026-06-20T03:36:14.110Z)
Latitude
Longitude
133.17329°
Altitude
482.919 km
Speed
7.626 km/s
True Right ascension
06h 22m 24s
True Declination
0° 00' 00"
Sunlit
Object was in daylight at epoch
Visualization orbit readout
Latitude
Unknown
Longitude
Unknown
Altitude
Unknown
Speed
Unknown
Apparent Right ascension
Unknown
Apparent Declination
Unknown
Sunlit
N/A
Visualization observer readout
Local Sidereal Time
07:19:16
Azimuth
Unknown
Elevation
Unknown
Doppler factor
Unknown
Orbital elements
Apogee altitude
485.591 km
Perigee altitude
484.175 km
Semi-major axis
6,863.02 km
Eccentricity
0.0001
Inclination
42.9979°
RAAN
95.601°
Arg. of periapsis
253.1382°
True anomaly
106.94701°
Mean anomaly
106.9357°
Eccentric anomaly
106.94136°
Mean motion
3.81742 °/min
Orbital period
94.3 mins
BSTAR
0.00061861
Loading maneuver chart data...
Computing Atmospheric mass density...
Loading historical data...
Loading historical data...
Loading historical data...
Loading historical data...
Loading historical data...
Loading historical data...
Loading historical data...

Documentation

Showing up to 5 results
|